GW4803 Weather Reports


time (UTC)temp
C
wind
direction
speed
KPH
gust
KPH
rain 1hr
cm
rain 24hr
cm
rain mn
cm
humidity
%
barometer
mb
20260506092548 9 42 16.1 25.7 0.00 0.00 0.00 70 1011.8
20260506092047 9 57 17.7 25.7 0.00 0.00 0.00 69 1011.8
20260506091553 9 51 19.3 25.7 0.00 0.00 0.00 69 1011.7
20260506091046 10 61 14.5 24.1 0.00 0.00 0.00 69 1011.8
20260506090548 10 59 14.5 25.7 0.00 0.00 0.00 69 1011.6
20260506090053 10 56 16.1 29.0 0.00 0.00 0.00 68 1011.7
20260506085544 9 61 20.9 29.0 0.00 0.00 0.00 68 1011.3
20260506085045 10 57 19.3 25.7 0.00 0.00 0.00 67 1011.2
20260506084547 10 55 20.9 25.7 0.00 0.00 0.00 67 1011.1
20260506084043 10 47 14.5 27.4 0.00 0.00 0.00 66 1011.2
20260506083543 10 49 19.3 27.4 0.00 0.00 0.00 66 1010.9
20260506083043 10 34 16.1 29.0 0.00 0.00 0.00 66 1011.1
20260506082543 10 48 17.7 24.1 0.00 0.00 0.00 66 1011.0
20260506082041 9 57 17.7 27.4 0.00 0.00 0.00 65 1011.1
20260506081540 9 65 17.7 24.1 0.00 0.00 0.00 66 1010.9
20260506081041 9 57 16.1 25.7 0.00 0.00 0.00 66 1010.9
20260506080540 9 63 14.5 25.7 0.00 0.00 0.00 67 1010.9
20260506073033 9 27 22.5 30.6 0.00 0.00 0.00 68 1009.8
20260506072534 9 48 19.3 29.0 0.00 0.00 0.00 68 1009.8
20260506072030 9 43 22.5 29.0 0.00 0.00 0.00 68 1009.5
20260506071531 9 49 19.3 25.7 0.00 0.00 0.00 68 1009.4
20260506071031 9 73 17.7 29.0 0.00 0.00 0.00 68 1009.3
20260506070530 9 58 22.5 37.0 0.00 0.00 0.00 68 1009.1
20260506062025 10 50 19.3 32.2 0.00 0.00 0.00 72 1009.2
20260506061524 10 71 17.7 33.8 0.00 0.00 0.00 72 1009.1
20260506061024 9 62 20.9 35.4 0.00 0.00 0.00 72 1009.2
20260506060523 9 63 20.9 35.4 0.00 0.00 0.00 73 1009.3
20260506051015 10 67 25.7 33.8 0.00 0.00 0.00 77 1009.1
20260506050514 10 49 22.5 35.4 0.00 0.00 0.00 77 1009.2
20260506045013 10 60 27.4 37.0 0.00 0.00 0.00 77 1008.9
20260506044512 10 56 25.7 37.0 0.00 0.00 0.00 77 1008.9
20260506044011 10 54 24.1 37.0 0.00 0.00 0.00 77 1008.8
20260506043515 10 63 27.4 37.0 0.00 0.00 0.00 77 1008.7
20260506043014 10 58 27.4 38.6 0.00 0.00 0.00 77 1008.6
20260506042510 10 42 29.0 38.6 0.00 0.00 0.00 78 1008.7
20260506042009 10 46 24.1 37.0 0.00 0.00 0.00 78 1008.7
20260506041509 10 52 22.5 37.0 0.00 0.00 0.00 78 1008.9
20260506041008 10 59 22.5 27.4 0.00 0.00 0.00 78 1008.6
20260506040508 10 37 17.7 33.8 0.00 0.00 0.00 78 1008.8
20260506040008 10 40 19.3 37.0 0.00 0.00 0.00 78 1008.7
20260506035510 10 50 22.5 37.0 0.00 0.00 0.00 78 1008.4
20260506035006 10 45 16.1 32.2 0.00 0.00 0.00 78 1008.8
20260506034517 10 56 22.5 29.0 0.00 0.00 0.00 78 1008.4
20260506034006 10 60 16.1 29.0 0.00 0.00 0.00 78 1008.7
20260506033505 10 53 22.5 29.0 0.00 0.00 0.00 78 1008.4
20260506033005 10 64 20.9 29.0 0.00 0.00 0.00 78 1008.5
20260506032505 10 54 19.3 29.0 0.00 0.00 0.00 79 1008.5
20260506032005 10 62 17.7 25.7 0.00 0.00 0.00 79 1008.4
20260506031502 10 57 19.3 25.7 0.00 0.00 0.00 79 1008.3
20260506031004 10 61 16.1 27.4 0.00 0.00 0.00 78 1008.3
20260506030559 10 57 17.7 27.4 0.00 0.00 0.00 78 1008.1
20260506025600 10 67 22.5 32.2 0.00 0.00 0.00 78 1007.8
20260506025100 10 66 19.3 32.2 0.00 0.00 0.00 78 1007.7
20260506024616 10 60 20.9 27.4 0.00 0.00 0.00 77 1007.6
20260506024055 10 61 22.5 27.4 0.00 0.00 0.00 77 1007.4
20260506023554 10 61 20.9 29.0 0.00 0.00 0.00 77 1007.3
20260506023054 10 45 22.5 29.0 0.00 0.00 0.00 76 1007.3
20260506022553 10 55 19.3 29.0 0.00 0.00 0.00 76 1007.4
20260506022052 10 43 19.3 27.4 0.00 0.00 0.00 76 1007.4
20260506021553 10 54 19.3 25.7 0.00 0.00 0.00 76 1007.3
20260506021051 10 61 16.1 25.7 0.00 0.00 0.00 76 1007.2
20260506020552 10 68 16.1 30.6 0.00 0.00 0.00 75 1007.1
20260506020048 10 59 22.5 30.6 0.00 0.00 0.00 75 1006.8
20260506015550 10 53 22.5 30.6 0.00 0.00 0.00 75 1006.3
20260506015046 10 51 24.1 37.0 0.00 0.00 0.00 75 1006.3
20260506014547 10 61 22.5 37.0 0.00 0.00 0.00 75 1006.0
20260506014047 10 57 20.9 37.0 0.00 0.00 0.00 75 1005.9
20260506013546 10 46 24.1 37.0 0.00 0.00 0.00 75 1006.0
20260506013059 10 57 22.5 33.8 0.00 0.00 0.00 75 1005.8
20260506012543 10 56 24.1 35.4 0.00 0.00 0.00 75 1005.8
20260506012043 10 49 24.1 35.4 0.00 0.00 0.00 76 1005.6
20260506011543 11 42 24.1 35.4 0.00 0.00 0.00 75 1005.6
20260506011041 11 63 25.7 37.0 0.00 0.00 0.00 75 1005.7
20260506010541 11 58 25.7 37.0 0.00 0.00 0.00 75 1005.5
20260506010039 11 55 27.4 41.8 0.00 0.00 0.00 74 1005.3
20260506005538 11 54 25.7 41.8 0.00 0.00 0.00 74 1005.4
20260506005037 11 49 25.7 40.2 0.00 0.00 0.00 74 1005.5
20260506004537 11 49 30.6 46.7 0.00 0.00 0.00 74 1005.6
20260506004036 11 28 30.6 46.7 0.00 0.00 0.00 73 1005.5
20260506003535 11 50 30.6 40.2 0.00 0.00 0.00 73 1005.6
20260506003038 11 49 30.6 45.1 0.00 0.00 0.00 73 1005.6
20260506002534 11 49 30.6 41.8 0.00 0.00 0.00 72 1005.7
20260506002034 11 42 29.0 41.8 0.00 0.00 0.00 72 1005.7
20260506001537 11 36 29.0 38.6 0.00 0.00 0.00 71 1005.6
20260506001032 12 49 29.0 38.6 0.00 0.00 0.00 71 1005.6
20260506000531 12 33 24.1 33.8 0.00 0.00 0.00 71 1005.6
20260506000032 12 46 24.1 33.8 0.00 0.00 0.00 70 1005.7
20260505235530 12 51 25.7 33.8 0.00 0.00 0.00 70 1005.7
20260505235029 12 32 25.7 32.2 0.00 0.00 0.00 69 1005.8
20260505234535 12 28 20.9 32.2 0.00 0.00 0.00 69 1005.9
20260505234029 12 32 20.9 30.6 0.00 0.00 0.00 70 1005.7
20260505233531 12 18 20.9 32.2 0.00 0.00 0.00 70 1005.7
20260505233028 12 46 20.9 32.2 0.00 0.00 0.00 70 1005.7
20260505232527 12 39 22.5 32.2 0.00 0.00 0.00 70 1005.8
20260505232027 12 53 20.9 32.2 0.00 0.00 0.00 70 1005.7
20260505231525 12 11 22.5 32.2 0.00 0.00 0.00 70 1005.6
20260505231026 12 19 20.9 32.2 0.00 0.00 0.00 70 1005.4
20260505230523 12 39 22.5 30.6 0.00 0.00 0.00 70 1005.2
20260505230038 12 27 22.5 32.2 0.00 0.00 0.00 70 1005.4
20260505225523 12 49 25.7 32.2 0.00 0.00 0.00 71 1005.2
20260505225023 12 49 22.5 30.6 0.00 0.00 0.00 71 1005.2
20260505224522 12 33 24.1 32.2 0.00 0.00 0.00 71 1005.3
20260505224023 12 42 24.1 33.8 0.00 0.00 0.00 71 1005.4
20260505223521 12 42 25.7 33.8 0.00 0.00 0.00 70 1005.1
20260505223022 12 34 22.5 33.8 0.00 0.00 0.00 70 1005.1
20260505222522 12 23 27.4 33.8 0.00 0.00 0.00 70 1004.8
20260505222020 12 48 25.7 33.8 0.00 0.00 0.00 70 1004.8
20260505221520 12 35 22.5 30.6 0.00 0.00 0.00 71 1004.9
20260505221019 12 31 20.9 33.8 0.00 0.00 0.00 71 1004.9
20260505220520 12 47 22.5 33.8 0.00 0.00 0.00 72 1005.0
20260505220021 12 53 27.4 33.8 0.00 0.00 0.00 71 1004.8
20260505215521 12 28 22.5 32.2 0.00 0.00 0.00 72 1004.9
20260505215019 12 30 22.5 37.0 0.00 0.00 0.00 72 1004.8
20260505214519 12 42 25.7 37.0 0.00 0.00 0.00 72 1004.9
20260505214018 12 34 22.5 33.8 0.00 0.00 0.00 73 1004.9
20260505213517 12 28 22.5 33.8 0.00 0.00 0.00 73 1005.0
20260505213017 12 36 20.9 32.2 0.00 0.00 0.00 73 1005.0
20260505212521 12 42 22.5 32.2 0.00 0.00 0.00 73 1005.2
20260505212018 12 34 19.3 32.2 0.00 0.00 0.00 73 1005.1
20260505211517 12 42 24.1 32.2 0.00 0.00 0.00 73 1004.9
20260505211016 12 30 22.5 37.0 0.00 0.00 0.00 73 1004.7
20260505210518 12 61 25.7 37.0 0.00 0.00 0.00 72 1004.5
20260505210016 13 28 25.7 35.4 0.00 0.00 0.00 72 1004.2
20260505205517 12 40 20.9 40.2 0.00 0.00 0.00 74 1004.1
20260505205015 12 19 24.1 40.2 0.00 0.00 0.00 74 1004.1
20260505204517 12 43 27.4 38.6 0.00 0.00 0.00 74 1004.3
20260505204014 12 25 29.0 38.6 0.00 0.00 0.00 74 1004.2
20260505203514 12 32 25.7 37.0 0.00 0.00 0.00 74 1004.2
20260505203014 12 15 29.0 37.0 0.00 0.00 0.00 73 1004.1
20260505202514 13 36 24.1 37.0 0.00 0.00 0.00 74 1004.2
20260505202013 12 40 27.4 38.6 0.00 0.00 0.00 75 1004.0
20260505201513 12 36 29.0 38.6 0.00 0.00 0.00 75 1004.2
20260505201013 12 33 27.4 35.4 0.00 0.00 0.00 75 1004.4
20260505200514 12 28 25.7 32.2 0.00 0.00 0.00 76 1004.5
20260505200026 12 35 25.7 33.8 0.00 0.00 0.00 77 1004.6
20260505195512 12 51 22.5 33.8 0.00 0.00 0.00 76 1005.2
20260505195112 12 52 17.7 32.2 0.00 0.00 0.00 77 1004.9
20260505194511 12 9 24.1 35.4 0.00 0.00 0.00 77 1004.3
20260505194012 12 34 27.4 35.4 0.00 0.00 0.00 77 1004.6
20260505193509 12 12 24.1 32.2 0.00 0.00 0.00 76 1005.1
20260505193009 12 24 20.9 35.4 0.00 0.00 0.00 75 1004.8
20260505192507 13 39 25.7 35.4 0.00 0.00 0.00 74 1004.6
20260505192004 13 25 25.7 38.6 0.00 0.00 0.00 72 1004.4
20260505191503 13 34 22.5 43.5 0.00 0.00 0.00 71 1003.9
20260505191001 14 31 29.0 43.5 0.00 0.00 0.00 70 1002.8
20260505190504 15 9 33.8 43.5 0.00 0.00 0.00 69 1002.9
20260505190000 14 17 27.4 40.2 0.00 0.00 0.00 70 1002.8
20260505185603 15 44 30.6 43.5 0.00 0.00 0.00 69 1003.1
20260505185100 14 33 32.2 43.5 0.00 0.00 0.00 69 1002.8
20260505184601 14 355 32.2 46.7 0.00 0.00 0.00 69 1003.0
20260505184100 14 32 32.2 46.7 0.00 0.00 0.00 69 1003.0
20260505183559 14 5 32.2 43.5 0.00 0.00 0.00 69 1003.2
20260505183107 14 25 32.2 46.7 0.00 0.00 0.00 69 1003.1
20260505182558 14 23 33.8 46.7 0.00 0.00 0.00 70 1003.0
20260505182058 14 346 33.8 41.8 0.00 0.00 0.00 69 1003.6
20260505181558 14 35 29.0 38.6 0.00 0.00 0.00 70 1003.6
20260505181058 14 360 27.4 45.1 0.00 0.00 0.00 70 1003.5
20260505180557 14 360 32.2 45.1 0.00 0.00 0.00 70 1003.3
20260505180058 14 342 29.0 45.1 0.00 0.00 0.00 71 1003.0
20260505175557 14 15 29.0 43.5 0.00 0.00 0.00 71 1002.9
20260505175057 14 18 29.0 43.5 0.00 0.00 0.00 70 1003.2
20260505174558 14 5 32.2 43.5 0.00 0.00 0.00 69 1003.2
20260505174055 15 360 30.6 43.5 0.00 0.00 0.00 69 1003.4
20260505173557 14 44 27.4 40.2 0.00 0.00 0.00 70 1003.3
20260505173052 14 21 27.4 43.5 0.00 0.00 0.00 71 1003.3
20260505172551 15 23 32.2 43.5 0.00 0.00 0.00 69 1003.0
20260505172050 15 40 32.2 40.2 0.00 0.00 0.00 67 1002.8
20260505171548 15 28 22.5 43.5 0.00 0.00 0.00 68 1002.6
20260505171149 15 5 27.4 43.5 0.00 0.00 0.00 67 1002.4
20260505170548 15 5 25.7 41.8 0.00 0.00 0.00 64 1002.5
20260505170047 15 5 27.4 40.2 0.00 0.00 0.00 65 1002.2
20260505165546 16 5 25.7 40.2 0.00 0.00 0.00 66 1002.2
20260505165045 15 5 27.4 45.1 0.00 0.00 0.00 67 1002.1
20260505164557 15 19 33.8 45.1 0.00 0.00 0.00 66 1001.9
20260505164044 16 9 29.0 41.8 0.00 0.00 0.00 66 1001.7
20260505163543 16 15 27.4 43.5 0.00 0.00 0.00 66 1001.7
20260505163051 16 15 29.0 43.5 0.00 0.00 0.00 68 1001.8
20260505162547 16 38 29.0 43.5 0.00 0.00 0.00 67 1002.0
20260505162042 16 351 29.0 40.2 0.00 0.00 0.00 67 1001.8
20260505161544 16 347 29.0 38.6 0.00 0.00 0.00 67 1001.6
20260505161041 16 355 29.0 37.0 0.00 0.00 0.00 68 1001.4
20260505160539 16 9 24.1 38.6 0.00 0.00 0.00 69 1001.4
20260505153047 16 44 33.8 45.1 0.00 0.00 0.00 70 1000.5
20260505152532 16 5 32.2 43.5 0.00 0.00 0.00 69 1000.4
20260505152032 16 351 33.8 45.1 0.00 0.00 0.00 69 1000.4
20260505151541 16 355 32.2 45.1 0.00 0.00 0.00 69 1000.2
20260505151030 16 355 30.6 46.7 0.00 0.00 0.00 69 1000.1
20260505150529 16 24 30.6 46.7 0.00 0.00 0.00 71 1000.0
20260505140518 17 355 32.2 48.3 0.00 0.00 0.00 75 998.2
20260505125002 17 344 14.5 29.0 0.00 0.00 0.00 61 996.6
20260505124502 17 329 16.1 29.0 0.00 0.00 0.00 56 996.6
20260505124100 17 320 19.3 24.1 0.00 0.00 0.00 59 996.6
20260505123559 17 296 12.9 16.1 0.00 0.00 0.00 65 996.4
20260505123106 17 282 11.3 14.5 0.00 0.00 0.00 64 996.1
20260505122559 18 283 8.0 14.5 0.00 0.00 0.00 61 995.8
20260505122055 18 255 6.4 14.5 0.00 0.00 0.00 60 995.7
20260505121554 18 279 9.7 14.5 0.00 0.00 0.00 60 995.6
20260505121053 18 264 9.7 14.5 0.00 0.00 0.00 60 995.5
20260505120552 18 250 4.8 9.7 0.00 0.00 0.00 59 995.4
20260505120053 19 231 6.4 12.9 0.00 0.00 0.00 58 995.2
20260505115555 19 229 6.4 17.7 0.00 0.00 0.00 58 995.1
20260505115052 19 231 8.0 17.7 0.00 0.00 0.00 58 995.2
20260505114552 19 208 8.0 12.9 0.00 0.00 0.00 58 995.1
20260505114055 20 217 4.8 11.3 0.00 0.00 0.00 58 995.0
20260505113556 20 225 6.4 16.1 0.00 0.00 0.00 57 995.0
20260505113058 20 209 11.3 19.3 0.00 0.00 0.00 57 994.9
20260505112552 20 198 11.3 19.3 0.00 0.00 0.00 59 994.8
20260505112051 20 215 9.7 19.3 0.00 0.00 0.00 60 994.8
20260505111555 19 196 12.9 19.3 0.00 0.00 0.00 61 994.8
20260505111051 19 215 8.0 17.7 0.00 0.00 0.00 62 994.8
20260505110550 19 213 8.0 17.7 0.00 0.00 0.00 62 994.7
20260505102047 18 205 9.7 12.9 0.00 0.00 0.00 68 994.1
20260505101546 18 198 8.0 12.9 0.00 0.00 0.00 67 994.0
20260505101048 19 177 8.0 12.9 0.00 0.00 0.00 67 994.0
20260505100545 19 180 9.7 12.9 0.00 0.00 0.00 66 994.0
20260505100049 20 167 11.3 14.5 0.00 0.00 0.00 63 994.0
20260505095543 20 169 9.7 12.9 0.00 0.00 0.00 62 994.0
20260505095038 20 172 9.7 14.5 0.00 0.00 0.00 60 994.0
20260505094539 20 174 11.3 14.5 0.00 0.00 0.00 58 993.9
20260505094038 20 186 11.3 17.7 0.00 0.00 0.00 58 993.9
20260505093538 20 182 11.3 22.5 0.00 0.00 0.00 58 993.9
20260505093039 20 194 12.9 17.7 0.00 0.00 0.00 59 993.8